Location: Poughquag
(41.6090°N, 73.6820°W)
Time: 14:54:51
(UTC-04:00)

Transit 2A - Pass Details

Date: 02 June 2020
Orbit: 592 x 967 km, 66.7° (Epoch: 05 July)

Event Time Altitude Azimuth Distance (km) Brightness Sun altitude
Rises 00:35:27 0° 308° (NW) 3,617 10.1 -26.0°
Reaches altitude 10° 00:39:58 10° 278° (W) 2,699 8.9 -26.1°
Maximum altitude 00:42:00 12° 260° (W) 2,582 8.6 -26.1°
Enters shadow 00:42:44 11° 252° (WSW) 2,598 8.6 -26.1°
